Location: Goheenville
(40.9070°N, 79.3720°W)
Time: 12:01:38
(UTC-04:00)

Meteor 2-10 Rocket - Visible Passes

Search period start: 23 June 2018 00:00
Search period end: 03 July 2018 00:00
Orbit: 733 x 886 km, 81.2° (Epoch: 22 June)

Date Brightness Start Highest point End Pass type
(mag) Time Alt. Az. Time Alt. Az. Time Alt. Az.
23 Jun 4.3 01:28:50 10° NNW 01:33:35 38° W 01:33:46 38° W visible
23 Jun 5.3 23:23:30 10° NNE 23:27:00 18° ENE 23:28:32 16° E visible
24 Jun 3.8 01:04:18 10° NNW 01:09:21 54° W 01:09:40 53° WSW visible
24 Jun 5.7 23:00:11 10° NE 23:02:28 13° ENE 23:04:27 11° E visible
25 Jun 3.4 00:39:53 10° NNW 00:45:05 78° W 00:45:35 71° SSW visible
26 Jun 3.5 00:15:33 10° N 00:20:47 75° E 00:21:31 64° SE visible
26 Jun 5.8 02:00:07 10° WNW 02:02:10 12° W 02:02:39 12° W visible
26 Jun 3.9 23:51:19 10° N 23:56:27 53° ENE 23:57:28 46° ESE visible
27 Jun 5.4 01:34:35 10° NW 01:38:03 18° W 01:38:36 18° W visible
27 Jun 4.4 23:27:12 10° N 23:32:04 37° ENE 23:33:25 32° ESE visible
28 Jun 5.0 01:09:39 10° NW 01:13:54 25° W 01:14:34 25° W visible
28 Jun 4.8 23:03:12 10° NNE 23:07:40 27° ENE 23:09:24 23° ESE visible
29 Jun 4.5 00:44:57 10° NNW 00:49:43 36° W 00:50:32 34° WSW visible
29 Jun 5.2 22:39:21 10° NNE 22:43:12 20° ENE 22:45:23 16° E visible
30 Jun 4.1 00:20:23 10° NNW 00:25:30 51° W 00:26:32 44° SW visible
30 Jun 5.6 22:15:51 10° NNE 22:18:41 14° ENE 22:21:24 10° E visible
30 Jun 3.6 23:55:57 10° NNW 00:01:15 72° W 00:02:33 52° SSW visible
01 Jul 3.5 23:31:36 10° N 23:36:57 81° E 23:38:34 48° SSE visible
02 Jul 5.9 01:16:28 10° WNW 01:18:17 12° W 01:19:43 11° W visible
02 Jul 3.8 23:07:21 10° N 23:12:38 58° ENE 23:14:37 37° SE visible
